Location: Pittsburgh
(40.4410°N, 79.9960°W)
Time: 03:49:15
(UTC-04:00)

ISS - Visible Passes

Search period start: 08 March 2026 00:00
Search period end: 18 March 2026 01:00
Orbit: 416 x 427 km, 51.6° (Epoch: 7 March)

Date Brightness Start Highest point End Pass type
(mag) Time Alt. Az. Time Alt. Az. Time Alt. Az.
9 Mar -2.2 20:52:11 10° SSW 20:54:01 24° S 20:54:01 24° S visible
10 Mar -2.1 20:05:50 10° S 20:08:19 19° SE 20:09:49 15° E visible
10 Mar -1.2 21:41:36 10° WSW 21:42:52 20° W 21:42:52 20° W visible
11 Mar -3.8 20:54:24 10° SW 20:57:48 81° NW 20:58:28 54° NE visible
12 Mar -3.6 20:07:22 10° SW 20:10:42 58° SE 20:13:52 11° ENE visible
12 Mar -1.2 21:44:57 10° WNW 21:46:54 21° NW 21:46:54 21° NW visible
13 Mar -2.1 20:57:22 10° W 21:00:29 32° NNW 21:02:07 20° NNE visible
14 Mar -2.8 20:09:55 10° WSW 20:13:13 48° NNW 20:16:31 10° NE visible
14 Mar -0.9 21:48:36 10° NW 21:50:12 15° NNW 21:50:12 15° NNW visible
15 Mar -1.3 21:00:48 10° WNW 21:03:15 18° NNW 21:05:08 13° NNE visible
16 Mar -1.6 20:13:03 10° WNW 20:15:50 23° NNW 20:18:37 10° NNE visible
16 Mar -0.7 21:52:03 10° NNW 21:52:57 12° NNW 21:52:57 12° NNW visible
17 Mar -1.0 21:04:20 10° NW 21:06:05 13° N 21:07:41 10° NNE visible
